| time (UTC) | temp C | wind direction | speed KPH | gust KPH | rain 1hr cm | rain 24hr cm | rain mn cm | humidity % | barometer mb |
| 20260506150054 | 12 | 88 | 0.0 | 0.0 | 0.00 | 0.03 | 0.00 | 2 | 1017.5 |
| 20260506144559 | 12 | 88 | 0.0 | 0.0 | 0.00 | 0.03 | 0.00 | 1 | 1017.5 |
| 20260506143044 | 11 | 88 | 0.0 | 0.0 | 0.00 | 0.03 | 0.00 | 1 | 1017.4 |
| 20260506141538 | 11 | 88 | 0.0 | 0.0 | 0.00 | 0.03 | 0.00 | 1 | 1017.1 |
| 20260506140041 | 11 | 88 | 0.0 | 0.0 | 0.00 | 0.03 | 0.00 | 1 | 1017.1 |
| 20260506134531 | 11 | 88 | 0.0 | 0.0 | 0.00 | 0.03 | 0.00 | 1 | 1017.0 |
| 20260506133042 | 11 | 88 | 0.0 | 0.0 | 0.00 | 0.03 | 0.00 | 1 | 1017.1 |
| 20260506131528 | 11 | 88 | 0.0 | 0.0 | 0.00 | 0.03 | 0.00 | 1 | 1016.8 |
| 20260506130017 | 11 | 88 | 0.0 | 0.0 | 0.00 | 0.03 | 0.00 | 1 | 1016.8 |
| 20260506124512 | 11 | 88 | 0.0 | 0.0 | 0.00 | 0.03 | 0.00 | 1 | 1016.7 |
| 20260506123009 | 11 | 88 | 0.0 | 0.0 | 0.00 | 0.03 | 0.00 | 1 | 1016.6 |
| 20260506121503 | 11 | 88 | 0.0 | 0.0 | 0.00 | 0.03 | 0.00 | 2 | 1016.6 |
| 20260506120100 | 11 | 88 | 0.0 | 0.0 | 0.00 | 0.03 | 0.00 | 2 | 1016.6 |
| 20260506114601 | 11 | 88 | 0.0 | 0.0 | 0.00 | 0.03 | 0.00 | 3 | 1016.4 |
| 20260506113058 | 11 | 88 | 0.0 | 0.0 | 0.00 | 0.03 | 0.00 | 3 | 1016.4 |
| 20260506111551 | 11 | 88 | 0.0 | 0.0 | 0.00 | 0.03 | 0.00 | 3 | 1016.3 |
| 20260506110042 | 11 | 88 | 0.0 | 0.0 | 0.00 | 0.03 | 0.00 | 4 | 1016.1 |
| 20260506104545 | 11 | 88 | 0.0 | 0.0 | 0.00 | 0.03 | 0.00 | 5 | 1016.1 |
| 20260506103037 | 11 | 88 | 0.0 | 0.0 | 0.00 | 0.03 | 0.00 | 5 | 1016.0 |
| 20260506101539 | 11 | 88 | 0.0 | 0.0 | 0.00 | 0.03 | 0.00 | 8 | 1015.8 |
| 20260506100031 | 11 | 88 | 0.0 | 0.0 | 0.00 | 0.03 | 0.00 | 8 | 1015.7 |
| 20260506094521 | 11 | 88 | 0.0 | 0.0 | 0.00 | 0.03 | 0.00 | 9 | 1015.6 |
| 20260506093018 | 11 | 88 | 0.0 | 0.0 | 0.00 | 0.03 | 0.00 | 9 | 1015.6 |
| 20260506091512 | 11 | 88 | 0.0 | 0.0 | 0.00 | 0.03 | 0.00 | 9 | 1015.7 |
| 20260506090007 | 11 | 88 | 0.0 | 0.0 | 0.00 | 0.03 | 0.00 | 11 | 1015.7 |
| 20260506084509 | 11 | 88 | 0.0 | 0.0 | 0.00 | 0.03 | 0.00 | 13 | 1015.7 |
| 20260506083007 | 11 | 88 | 0.0 | 0.0 | 0.00 | 0.03 | 0.00 | 14 | 1015.8 |
| 20260506081503 | 11 | 88 | 0.0 | 0.0 | 0.00 | 0.03 | 0.00 | 16 | 1015.7 |
| 20260506073056 | 11 | 88 | 0.0 | 0.0 | 0.00 | 0.03 | 0.00 | 28 | 1015.3 |
| 20260506071555 | 11 | 88 | 0.0 | 0.0 | 0.00 | 0.03 | 0.00 | 30 | 1015.2 |
| 20260506061541 | 11 | 88 | 0.0 | 0.0 | 0.00 | 0.03 | 0.03 | 29 | 1014.9 |
| 20260506044516 | 11 | 88 | 0.0 | 0.0 | 0.00 | 0.03 | 0.03 | 35 | 1014.3 |
| 20260506043009 | 11 | 88 | 0.0 | 0.0 | 0.00 | 0.03 | 0.03 | 36 | 1014.0 |
| 20260506041505 | 11 | 88 | 0.0 | 0.0 | 0.00 | 0.03 | 0.03 | 38 | 1013.9 |
| 20260506040100 | 11 | 88 | 0.0 | 0.0 | 0.00 | 0.03 | 0.03 | 39 | 1013.7 |
| 20260506034557 | 11 | 88 | 0.0 | 0.0 | 0.00 | 0.03 | 0.03 | 40 | 1013.5 |
| 20260506033053 | 11 | 88 | 0.0 | 0.0 | 0.00 | 0.03 | 0.03 | 42 | 1013.4 |
| 20260506031548 | 12 | 88 | 0.0 | 0.0 | 0.00 | 0.03 | 0.03 | 45 | 1013.2 |
| 20260506030044 | 12 | 88 | 0.0 | 0.0 | 0.00 | 0.03 | 0.03 | 51 | 1013.0 |
| 20260506024539 | 12 | 88 | 0.0 | 0.0 | 0.00 | 0.03 | 0.03 | 53 | 1013.0 |
| 20260506023048 | 12 | 88 | 0.0 | 0.0 | 0.00 | 0.03 | 0.03 | 56 | 1012.8 |
| 20260506021534 | 12 | 88 | 0.0 | 0.0 | 0.00 | 0.03 | 0.03 | 58 | 1012.8 |
| 20260506020031 | 13 | 88 | 0.0 | 0.0 | 0.00 | 0.03 | 0.03 | 60 | 1012.8 |
| 20260506014521 | 13 | 88 | 0.0 | 0.0 | 0.00 | 0.03 | 0.03 | 62 | 1012.7 |
| 20260506013018 | 13 | 88 | 0.0 | 0.0 | 0.00 | 0.03 | 0.03 | 63 | 1012.7 |
| 20260506011512 | 13 | 88 | 0.0 | 0.0 | 0.00 | 0.03 | 0.03 | 64 | 1012.6 |
| 20260506010018 | 14 | 88 | 0.0 | 0.0 | 0.00 | 0.03 | 0.03 | 64 | 1012.6 |
| 20260506004505 | 15 | 88 | 0.0 | 0.0 | 0.00 | 0.03 | 0.03 | 66 | 1012.6 |
| 20260506003100 | 15 | 88 | 0.0 | 0.0 | 0.00 | 0.03 | 0.03 | 67 | 1012.5 |
| 20260506001559 | 15 | 88 | 0.0 | 0.0 | 0.00 | 0.03 | 0.03 | 65 | 1012.4 |
| 20260506000051 | 15 | 88 | 0.0 | 0.0 | 0.00 | 0.03 | 0.03 | 66 | 1012.3 |
| 20260505234604 | 15 | 88 | 0.0 | 0.0 | 0.00 | 0.03 | 0.03 | 65 | 1012.4 |
| 20260505233043 | 15 | 88 | 0.0 | 0.0 | 0.00 | 0.03 | 0.03 | 65 | 1012.4 |
| 20260505231539 | 15 | 88 | 0.0 | 0.0 | 0.03 | 0.03 | 0.03 | 66 | 1012.4 |
| 20260505230034 | 15 | 88 | 0.0 | 0.0 | 0.03 | 0.03 | 0.03 | 65 | 1012.5 |
| 20260505224534 | 15 | 88 | 0.0 | 0.0 | 0.03 | 0.03 | 0.03 | 63 | 1012.5 |
| 20260505223025 | 16 | 88 | 0.0 | 0.0 | 0.03 | 0.03 | 0.03 | 65 | 1012.5 |
| 20260505221523 | 16 | 88 | 0.0 | 0.0 | 0.00 | 0.00 | 0.00 | 65 | 1012.6 |
| 20260505220117 | 17 | 88 | 0.0 | 0.0 | 0.00 | 0.00 | 0.00 | 65 | 1012.7 |
| 20260505214515 | 17 | 88 | 0.0 | 0.0 | 0.00 | 0.00 | 0.00 | 64 | 1012.8 |
| 20260505213008 | 17 | 88 | 0.0 | 0.0 | 0.00 | 0.00 | 0.00 | 63 | 1012.8 |
| 20260505211504 | 16 | 88 | 0.0 | 0.0 | 0.00 | 0.00 | 0.00 | 60 | 1013.0 |
| 20260505210103 | 15 | 88 | 0.0 | 0.0 | 0.00 | 0.00 | 0.00 | 51 | 1013.1 |
| 20260505204604 | 15 | 88 | 0.0 | 0.0 | 0.00 | 0.00 | 0.00 | 57 | 1013.1 |
| 20260505203055 | 15 | 88 | 0.0 | 0.0 | 0.00 | 0.00 | 0.00 | 48 | 1013.0 |
| 20260505201550 | 14 | 88 | 0.0 | 0.0 | 0.00 | 0.00 | 0.00 | 51 | 1013.0 |
| 20260505200059 | 13 | 88 | 0.0 | 0.0 | 0.00 | 0.00 | 0.00 | 43 | 1013.1 |
| 20260505194545 | 14 | 88 | 0.0 | 0.0 | 0.00 | 0.00 | 0.00 | 58 | 1013.2 |
| 20260505193035 | 15 | 88 | 0.0 | 0.0 | 0.00 | 0.00 | 0.00 | 57 | 1013.1 |
| 20260505191529 | 15 | 88 | 0.0 | 0.0 | 0.00 | 0.00 | 0.00 | 60 | 1013.2 |
| 20260505190027 | 14 | 88 | 0.0 | 0.0 | 0.00 | 0.00 | 0.00 | 44 | 1013.2 |
| 20260505184523 | 13 | 88 | 0.0 | 0.0 | 0.00 | 0.00 | 0.00 | 46 | 1013.1 |
| 20260505183019 | 13 | 88 | 0.0 | 0.0 | 0.00 | 0.00 | 0.00 | 27 | 1013.2 |
| 20260505181512 | 12 | 88 | 0.0 | 0.0 | 0.00 | 0.00 | 0.00 | 41 | 1013.2 |
| 20260505180009 | 12 | 88 | 0.0 | 0.0 | 0.00 | 0.00 | 0.00 | 22 | 1013.0 |
| 20260505174504 | 12 | 88 | 0.0 | 0.0 | 0.00 | 0.00 | 0.00 | 23 | 1012.8 |
| 20260505173059 | 12 | 88 | 0.0 | 0.0 | 0.00 | 0.00 | 0.00 | 10 | 1012.8 |
| 20260505171554 | 12 | 88 | 0.0 | 0.0 | 0.00 | 0.00 | 0.00 | 1 | 1012.6 |
| 20260505170050 | 12 | 88 | 0.0 | 0.0 | 0.00 | 0.00 | 0.00 | 1 | 1012.7 |
| 20260505164549 | 11 | 88 | 0.0 | 0.0 | 0.00 | 0.00 | 0.00 | 1 | 1012.6 |
| 20260505163041 | 11 | 88 | 0.0 | 0.0 | 0.00 | 0.00 | 0.00 | 1 | 1012.5 |
| 20260505161538 | 11 | 88 | 0.0 | 0.0 | 0.00 | 0.00 | 0.00 | 1 | 1012.4 |
| 20260505153028 | 10 | 88 | 0.0 | 0.0 | 0.00 | 0.00 | 0.00 | 1 | 1012.3 |
| 20260505151519 | 10 | 88 | 0.0 | 0.0 | 0.00 | 0.00 | 0.00 | 1 | 1012.1 |